TimeCDT,TemperatureF,Dew PointF,Humidity,Sea Level PressureIn,VisibilityMPH,Wind Direction,Wind SpeedMPH,Gust SpeedMPH,PrecipitationIn,Events,Conditions,WindDirDegrees,DateUTC
12:15 AM,32.2,18.5,57,30.32,10.0,NNE,12.7,-,N/A,,Clear,30,2013-03-20 05:15:00
12:35 AM,29.8,18.3,62,30.32,10.0,NNE,9.2,-,N/A,,Clear,30,2013-03-20 05:35:00
12:55 AM,28.4,18.1,65,30.34,10.0,NNE,10.4,-,N/A,,Clear,20,2013-03-20 05:55:00
1:15 AM,26.1,17.6,70,30.34,10.0,North,8.1,-,N/A,,Clear,10,2013-03-20 06:15:00
1:35 AM,26.1,18.9,74,30.35,10.0,North,10.4,-,N/A,,Clear,10,2013-03-20 06:35:00
1:55 AM,25.7,19.0,76,30.36,10.0,North,8.1,-,N/A,,Clear,360,2013-03-20 06:55:00
2:15 AM,25.3,18.5,75,30.37,10.0,North,8.1,-,N/A,,Clear,360,2013-03-20 07:15:00
2:35 AM,24.4,18.5,78,30.37,10.0,North,6.9,-,N/A,,Clear,360,2013-03-20 07:35:00
2:55 AM,24.4,18.0,76,30.37,10.0,NNW,8.1,-,N/A,,Clear,340,2013-03-20 07:55:00
3:15 AM,23.9,17.6,77,30.37,10.0,North,8.1,-,N/A,,Clear,350,2013-03-20 08:15:00
3:35 AM,23.5,17.6,78,30.37,10.0,NNW,9.2,-,N/A,,Clear,330,2013-03-20 08:35:00
3:55 AM,22.8,17.2,79,30.37,10.0,NNW,6.9,-,N/A,,Clear,330,2013-03-20 08:55:00
4:15 AM,21.4,16.2,80,30.37,10.0,NW,5.8,-,N/A,,Clear,320,2013-03-20 09:15:00
4:35 AM,20.8,15.8,81,30.36,10.0,NNW,4.6,-,N/A,,Clear,330,2013-03-20 09:35:00
4:55 AM,20.3,15.6,82,30.36,10.0,NNW,4.6,-,N/A,,Clear,330,2013-03-20 09:55:00
5:15 AM,19.4,14.7,82,30.36,10.0,WNW,4.6,-,N/A,,Clear,300,2013-03-20 10:15:00
5:35 AM,18.5,14.5,85,30.36,10.0,NNW,3.5,-,N/A,,Clear,340,2013-03-20 10:35:00
5:55 AM,18.9,13.8,81,30.35,10.0,NNW,3.5,-,N/A,,Clear,330,2013-03-20 10:55:00
6:15 AM,17.6,13.5,84,30.35,10.0,NNW,3.5,-,N/A,,Clear,340,2013-03-20 11:15:00
6:35 AM,16.7,12.9,85,30.35,10.0,Calm,Calm,-,N/A,,Clear,0,2013-03-20 11:35:00
6:55 AM,17.2,12.9,83,30.35,10.0,Calm,Calm,-,N/A,,Clear,0,2013-03-20 11:55:00
7:15 AM,16.9,13.3,86,30.35,10.0,West,3.5,-,N/A,,Clear,270,2013-03-20 12:15:00
7:35 AM,16.9,12.9,84,30.35,10.0,Calm,Calm,-,N/A,,Clear,0,2013-03-20 12:35:00
7:55 AM,15.6,10.9,82,30.36,10.0,WSW,3.5,-,N/A,,Clear,250,2013-03-20 12:55:00
8:15 AM,18.3,13.1,80,30.36,10.0,Calm,Calm,-,N/A,,Clear,0,2013-03-20 13:15:00
8:35 AM,20.1,15.3,81,30.36,10.0,West,3.5,-,N/A,,Clear,280,2013-03-20 13:35:00
8:55 AM,22.8,15.8,74,30.36,10.0,West,4.6,-,N/A,,Clear,280,2013-03-20 13:55:00
9:15 AM,24.6,16.0,70,30.35,10.0,NW,4.6,-,N/A,,Clear,310,2013-03-20 14:15:00
9:35 AM,26.4,17.8,70,30.36,10.0,NW,4.6,-,N/A,,Clear,310,2013-03-20 14:35:00
9:55 AM,27.9,15.1,59,30.35,10.0,Calm,Calm,-,N/A,,Clear,0,2013-03-20 14:55:00
10:15 AM,28.9,13.3,52,30.35,10.0,NE,3.5,-,N/A,,Clear,40,2013-03-20 15:15:00
10:55 AM,31.1,10.4,42,30.34,10.0,North,3.5,-,N/A,,Clear,350,2013-03-20 15:55:00
11:15 AM,31.6,11.1,43,30.34,10.0,ENE,3.5,-,N/A,,Clear,60,2013-03-20 16:15:00
11:35 AM,32.7,10.2,39,30.33,10.0,Calm,Calm,-,N/A,,Clear,0,2013-03-20 16:35:00
11:55 AM,33.8,9.1,36,30.32,10.0,East,3.5,-,N/A,,Clear,80,2013-03-20 16:55:00
12:15 PM,34.9,9.1,34,30.31,10.0,SSW,3.5,-,N/A,,Clear,210,2013-03-20 17:15:00
12:35 PM,35.8,9.1,33,30.30,10.0,Calm,Calm,-,N/A,,Clear,0,2013-03-20 17:35:00
12:55 PM,36.5,9.0,32,30.28,10.0,West,4.6,-,N/A,,Clear,270,2013-03-20 17:55:00
1:15 PM,38.3,9.1,30,30.27,10.0,South,5.8,-,N/A,,Clear,180,2013-03-20 18:15:00
1:35 PM,39.4,9.3,29,30.24,10.0,SSW,4.6,-,N/A,,Clear,210,2013-03-20 18:35:00
1:55 PM,40.3,9.5,28,30.23,10.0,SSW,8.1,-,N/A,,Clear,210,2013-03-20 18:55:00
2:15 PM,41.2,9.7,28,30.21,10.0,South,8.1,-,N/A,,Clear,190,2013-03-20 19:15:00
2:35 PM,41.7,9.5,27,30.19,10.0,SSW,3.5,-,N/A,,Clear,200,2013-03-20 19:35:00
2:55 PM,43.7,10.8,26,30.17,10.0,South,4.6,-,N/A,,Clear,190,2013-03-20 19:55:00
3:15 PM,43.2,10.2,26,30.15,10.0,South,4.6,-,N/A,,Clear,180,2013-03-20 20:15:00
3:35 PM,44.2,10.9,26,30.13,10.0,SSW,5.8,9.2,N/A,,Clear,200,2013-03-20 20:35:00
3:55 PM,45.0,12.6,27,30.12,10.0,South,8.1,-,N/A,,Clear,190,2013-03-20 20:55:00
4:15 PM,44.6,12.4,27,30.10,10.0,SSE,9.2,-,N/A,,Clear,160,2013-03-20 21:15:00
4:35 PM,44.8,12.6,27,30.10,10.0,South,6.9,16.1,N/A,,Clear,180,2013-03-20 21:35:00
4:55 PM,44.8,12.7,27,30.08,10.0,South,9.2,-,N/A,,Clear,180,2013-03-20 21:55:00
5:15 PM,45.3,13.1,27,30.07,10.0,South,10.4,17.3,N/A,,Clear,190,2013-03-20 22:15:00
5:35 PM,44.6,14.7,30,30.07,10.0,South,11.5,-,N/A,,Clear,170,2013-03-20 22:35:00
5:55 PM,44.2,15.1,31,30.07,10.0,SSW,11.5,17.3,N/A,,Clear,200,2013-03-20 22:55:00
6:15 PM,44.6,15.1,30,30.06,10.0,South,12.7,-,N/A,,Clear,180,2013-03-20 23:15:00
6:35 PM,43.7,15.6,32,30.05,10.0,South,11.5,-,N/A,,Clear,180,2013-03-20 23:35:00
6:55 PM,43.0,15.6,33,30.04,10.0,SSE,10.4,-,N/A,,Clear,160,2013-03-20 23:55:00
7:15 PM,42.1,16.5,36,30.02,10.0,SE,10.4,-,N/A,,Clear,140,2013-03-21 00:15:00
7:35 PM,40.6,16.0,37,30.02,10.0,SE,9.2,-,N/A,,Clear,130,2013-03-21 00:35:00
7:55 PM,38.8,16.5,40,30.00,10.0,SE,9.2,-,N/A,,Clear,130,2013-03-21 00:55:00
8:15 PM,36.5,17.8,47,30.00,10.0,ESE,10.4,-,N/A,,Clear,120,2013-03-21 01:15:00
8:35 PM,36.7,18.3,47,29.99,10.0,ESE,11.5,-,N/A,,Clear,120,2013-03-21 01:35:00
8:55 PM,36.5,18.9,49,29.98,10.0,SE,11.5,-,N/A,,Clear,130,2013-03-21 01:55:00
9:15 PM,36.3,19.2,50,29.98,10.0,SE,11.5,-,N/A,,Clear,130,2013-03-21 02:15:00
9:35 PM,36.0,19.6,51,29.97,10.0,SE,12.7,-,N/A,,Clear,130,2013-03-21 02:35:00
9:55 PM,35.8,19.9,53,29.97,10.0,SE,12.7,-,N/A,,Clear,130,2013-03-21 02:55:00
10:15 PM,35.6,19.9,53,29.96,10.0,SE,13.8,-,N/A,,Clear,130,2013-03-21 03:15:00
10:35 PM,35.2,20.1,54,29.96,10.0,SE,15.0,-,N/A,,Clear,130,2013-03-21 03:35:00
10:55 PM,35.6,20.1,53,29.96,10.0,SE,15.0,-,N/A,,Scattered Clouds,130,2013-03-21 03:55:00
11:15 PM,35.6,20.3,54,29.96,10.0,SE,11.5,-,N/A,,Mostly Cloudy,130,2013-03-21 04:15:00
11:35 PM,35.2,20.5,55,29.97,10.0,SE,12.7,19.6,N/A,,Overcast,130,2013-03-21 04:35:00
11:55 PM,34.9,20.8,57,29.97,10.0,SE,12.7,-,N/A,,Overcast,130,2013-03-21 04:55:00